GORIZONT 12 [-]

Last updated on Oct. 25, 2020, 5:56 a.m. UTC

1 16769U 86044A   20298.19763465  .00000115  00000-0  00000-0 0  9990
2 16769  13.2423 337.1602 0002186 309.9437 216.8069  1.00264112126581
UTC
Height (km)
Latitude
Longitude
Inclination
Orbital Period
UTC large
Height (km)
Speed (km/s)
/
Latitude / Longitude
Inclination (degrees)
Orbital Period (minutes)
Azimuth
Elevation
Range (km)
Doppler Factor
iOS Compass Heading
iOS Angle

Next 30 passes for location: Hong Kong

Rise time Rise Azimuth (degrees) Set time Set Azimuth (degrees) Duration Max altitude (degrees)

No matching passes for this satellites